sat.trackr.live / text

‹ back to catalog

UHETSAT

NORAD 58466 · 2023-185E

PAYLOAD ACTIVE UNKNOWN

§ Identity

Operator
Country
IT
Launch date
2023-12-01
Launch site
AFWTR
Launch vehicle
Mass (kg)
RCS (m²)

External: N2YO · Heavens-Above · Gunter

§ Orbital elements

Epoch: 2026-05-25T04:24:59.749632Z

Period
94.06 min
Inclination
97.3492°
Eccentricity
0.0013836
Mean motion
15.30859265 rev/d
Perigee alt
463.8 km
Apogee alt
482.7 km
Semi-major
6,851.4 km
B*
2.1652e-4
RAAN
212.8636°
Arg perigee
40.0199°
Mean anomaly
320.2059°
Rev number
13,777

§ Raw data

UHETSAT1 58466U 23185E   26145.18402488  .00006398  00000+0  21652-3 0  99952 58466  97.3492 212.8636 0013836  40.0199 320.2059 15.30859265137777

JSON: /api/v1/satellites/58466 · /tle

For live sub-satellite position, see the globe view (requires WebGL).

§ Visibility from observer

Set your observer location to see the next 7 days of passes ≥ 10°. The values pass through the URL so the page stays shareable.

No JS? Fill the form by hand. The geolocation button needs JavaScript.

§ Radio — SatNOGS DB

ModeDescriptionDownlinkUplink
FSK Mode U - Transmitter 401.500 MHz

1 transmitter · refreshed weekly from db.satnogs.org